Wetterdaten: aktuell Freitag, 20.04.2018 23:40
Datum Zeit Temp. A. Aussen2m Boden Feuchte A. Feuchte 2 Luftdruck Regen Wind Richtung Richtung Sonnenschein
20.04.2018 23:40 20,2 C 20,0 C 10,8 C 56 % 60 % 1018,7 hPa 0,0 l/m 2,4 km/h (1 Bft) N-NW 335 0 min
20.04.2018 23:35 20,3 C 20,1 C 10,8 C 56 % 60 % 1018,7 hPa 0,0 l/m 0,6 km/h (0 Bft) N-NW 340 0 min
20.04.2018 23:30 20,3 C 20,1 C 10,8 C 57 % 60 % 1018,7 hPa 0,0 l/m 1,8 km/h (1 Bft) N-NO 15 0 min
20.04.2018 23:25 20,3 C 20,1 C 10,8 C 57 % 60 % 1018,7 hPa 0,0 l/m 3,0 km/h (1 Bft) N-NO 20 0 min
20.04.2018 23:20 20,1 C 20,0 C 10,8 C 58 % 61 % 1018,7 hPa 0,0 l/m 3,0 km/h (1 Bft) N 5 0 min
20.04.2018 23:15 20,1 C 20,0 C 10,8 C 58 % 61 % 1018,7 hPa 0,0 l/m 0,6 km/h (0 Bft) O-SO 120 0 min
20.04.2018 23:10 20,2 C 20,1 C 10,8 C 58 % 61 % 1018,7 hPa 0,0 l/m 0,6 km/h (0 Bft) NO 55 0 min
20.04.2018 23:05 20,2 C 20,2 C 10,8 C 58 % 61 % 1018,7 hPa 0,0 l/m 0,0 km/h (0 Bft) N-NW 330 0 min
20.04.2018 23:00 20,3 C 20,4 C 10,8 C 58 % 60 % 1018,7 hPa 0,0 l/m 0,0 km/h (0 Bft) N 0 0 min
20.04.2018 22:55 20,4 C 20,7 C 10,8 C 58 % 60 % 1018,7 hPa 0,0 l/m 0,6 km/h (0 Bft) N 350 0 min
20.04.2018 22:50 20,6 C 21,0 C 10,8 C 57 % 58 % 1018,7 hPa 0,0 l/m 1,8 km/h (1 Bft) N-NO 25 0 min
20.04.2018 22:45 20,8 C 21,3 C 10,8 C 57 % 58 % 1018,7 hPa 0,0 l/m 0,6 km/h (0 Bft) W 270 0 min
20.04.2018 22:40 21,0 C 21,5 C 10,8 C 56 % 58 % 1018,7 hPa 0,0 l/m 4,2 km/h (1 Bft) W 265 0 min
20.04.2018 22:35 21,3 C 21,6 C 10,8 C 55 % 58 % 1018,7 hPa 0,0 l/m 7,9 km/h (2 Bft) NO 55 0 min
20.04.2018 22:30 21,5 C 21,8 C 10,8 C 54 % 57 % 1018,7 hPa 0,0 l/m 4,2 km/h (1 Bft) N-NO 15 0 min
20.04.2018 22:25 21,7 C 22,0 C 10,8 C 53 % 56 % 1018,6 hPa 0,0 l/m 8,5 km/h (2 Bft) N 5 0 min
20.04.2018 22:20 21,8 C 22,0 C 10,8 C 54 % 56 % 1018,6 hPa 0,0 l/m 4,8 km/h (1 Bft) NW 320 0 min
20.04.2018 22:15 21,9 C 22,1 C 10,8 C 53 % 56 % 1018,6 hPa 0,0 l/m 2,4 km/h (1 Bft) NO 40 0 min
20.04.2018 22:10 22,0 C 22,2 C 10,8 C 53 % 56 % 1018,6 hPa 0,0 l/m 4,8 km/h (1 Bft) NW 320 0 min
20.04.2018 22:05 22,2 C 22,4 C 10,8 C 53 % 56 % 1018,6 hPa 0,0 l/m 5,4 km/h (2 Bft) NW 325 0 min
20.04.2018 22:00 22,2 C 22,4 C 10,8 C 53 % 56 % 1018,6 hPa 0,0 l/m 5,4 km/h (2 Bft) NW 305 0 min
20.04.2018 21:55 22,4 C 22,5 C 10,8 C 53 % 56 % 1018,6 hPa 0,0 l/m 6,1 km/h (2 Bft) O 80 0 min
20.04.2018 21:50 22,5 C 22,6 C 10,8 C 53 % 56 % 1018,6 hPa 0,0 l/m 6,1 km/h (2 Bft) W 260 0 min
20.04.2018 21:45 22,6 C 22,7 C 10,8 C 52 % 55 % 1018,6 hPa 0,0 l/m 9,7 km/h (2 Bft) NW 320 0 min
20.04.2018 21:40 22,7 C 22,8 C 10,8 C 53 % 56 % 1017,6 hPa 0,0 l/m 11,5 km/h (2 Bft) W-SW 255 0 min
20.04.2018 21:35 22,8 C 22,9 C 10,8 C 53 % 56 % 1017,6 hPa 0,0 l/m 9,7 km/h (2 Bft) NW 320 0 min
20.04.2018 21:30 23,0 C 23,0 C 10,8 C 52 % 56 % 1017,6 hPa 0,0 l/m 13,3 km/h (3 Bft) N-NW 340 0 min
20.04.2018 21:25 23,0 C 23,0 C 10,8 C 52 % 56 % 1018,6 hPa 0,0 l/m 10,9 km/h (2 Bft) W-NW 300 0 min
20.04.2018 21:20 23,0 C 23,1 C 10,8 C 53 % 56 % 1018,6 hPa 0,0 l/m 13,3 km/h (3 Bft) NW 310 0 min
20.04.2018 21:15 23,1 C 23,2 C 10,8 C 53 % 56 % 1018,6 hPa 0,0 l/m 12,1 km/h (2 Bft) N-NW 345 0 min
20.04.2018 21:10 23,1 C 23,2 C 10,8 C 53 % 56 % 1018,6 hPa 0,0 l/m 9,1 km/h (2 Bft) O 80 0 min
20.04.2018 21:05 23,1 C 23,4 C 10,8 C 53 % 55 % 1018,6 hPa 0,0 l/m 9,1 km/h (2 Bft) O 80 0 min
20.04.2018 21:00 23,2 C 23,5 C 10,8 C 52 % 55 % 1018,6 hPa 0,0 l/m 10,9 km/h (2 Bft) N-NW 330 0 min
20.04.2018 20:55 23,3 C 23,6 C 10,8 C 52 % 54 % 1017,6 hPa 0,0 l/m 12,7 km/h (3 Bft) W 265 0 min
20.04.2018 20:50 23,6 C 23,8 C 10,8 C 51 % 53 % 1017,6 hPa 0,0 l/m 13,9 km/h (3 Bft) N-NW 335 0 min
20.04.2018 20:45 23,6 C 23,8 C 10,8 C 51 % 53 % 1017,6 hPa 0,0 l/m 13,9 km/h (3 Bft) N-NW 335 0 min
20.04.2018 20:40 23,7 C 24,1 C 10,8 C 51 % 53 % 1017,6 hPa 0,0 l/m 13,9 km/h (3 Bft) N 10 0 min
20.04.2018 20:35 24,1 C 24,2 C 10,8 C 49 % 53 % 1017,6 hPa 0,0 l/m 5,4 km/h (2 Bft) S-SO 165 0 min
20.04.2018 20:30 24,1 C 24,4 C 10,8 C 49 % 52 % 1017,6 hPa 0,0 l/m 5,4 km/h (2 Bft) S-SO 165 0 min
20.04.2018 20:25 24,2 C 24,5 C 10,8 C 49 % 51 % 1017,6 hPa 0,0 l/m 9,1 km/h (2 Bft) NO 35 0 min
20.04.2018 20:20 24,4 C 24,7 C 10,8 C 48 % 50 % 1017,6 hPa 0,0 l/m 9,7 km/h (2 Bft) W-NW 285 0 min
20.04.2018 20:15 24,7 C 24,9 C 10,8 C 48 % 50 % 1017,6 hPa 0,0 l/m 11,5 km/h (2 Bft) NO 40 0 min
20.04.2018 20:10 25,0 C 24,9 C 10,8 C 47 % 49 % 1016,6 hPa 0,0 l/m 12,1 km/h (2 Bft) W-SW 245 0 min
20.04.2018 20:05 25,2 C 24,9 C 10,8 C 46 % 49 % 1016,6 hPa 0,0 l/m 12,1 km/h (2 Bft) NW 315 0 min
20.04.2018 20:00 25,3 C 24,8 C 10,8 C 45 % 49 % 1016,6 hPa 0,0 l/m 11,5 km/h (2 Bft) W-SW 240 0 min
20.04.2018 19:55 25,0 C 24,7 C 10,8 C 45 % 49 % 1017,6 hPa 0,0 l/m 15,7 km/h (3 Bft) NW 305 0 min
20.04.2018 19:50 25,4 C 25,0 C 10,8 C 42 % 48 % 1017,6 hPa 0,0 l/m 14,5 km/h (3 Bft) N-NW 340 0 min
20.04.2018 19:45 25,5 C 25,2 C 10,8 C 43 % 48 % 1017,6 hPa 0,0 l/m 10,9 km/h (2 Bft) W 265 0 min
20.04.2018 19:40 26,0 C 25,4 C 10,8 C 42 % 48 % 1017,6 hPa 0,0 l/m 10,9 km/h (2 Bft) W-NW 290 4 min
20.04.2018 19:35 26,1 C 25,4 C 10,8 C 42 % 48 % 1017,6 hPa 0,0 l/m 9,1 km/h (2 Bft) NW 310 6 min
20.04.2018 19:30 26,1 C 25,6 C 10,8 C 43 % 48 % 1017,6 hPa 0,0 l/m 7,3 km/h (2 Bft) NW 315 4 min
20.04.2018 19:25 26,3 C 25,6 C 10,8 C 42 % 49 % 1017,6 hPa 0,0 l/m 10,3 km/h (2 Bft) W-NW 285 5 min
20.04.2018 19:20 26,3 C 25,6 C 10,8 C 43 % 48 % 1017,6 hPa 0,0 l/m 12,1 km/h (2 Bft) W-NW 300 6 min
20.04.2018 19:15 26,3 C 25,8 C 10,8 C 42 % 49 % 1017,6 hPa 0,0 l/m 10,3 km/h (2 Bft) W 270 5 min
20.04.2018 19:10 26,3 C 25,8 C 10,8 C 42 % 47 % 1017,6 hPa 0,0 l/m 7,3 km/h (2 Bft) W-NW 290 5 min
20.04.2018 19:05 26,6 C 25,9 C 10,8 C 40 % 47 % 1017,6 hPa 0,0 l/m 13,3 km/h (3 Bft) W-NW 285 5 min
20.04.2018 19:00 26,8 C 26,2 C 10,8 C 38 % 45 % 1017,6 hPa 0,0 l/m 16,3 km/h (3 Bft) NW 310 5 min
20.04.2018 18:55 27,0 C 26,2 C 10,8 C 39 % 46 % 1017,6 hPa 0,0 l/m 13,3 km/h (3 Bft) W-NW 285 2 min
20.04.2018 18:50 26,9 C 26,2 C 10,8 C 41 % 48 % 1017,6 hPa 0,0 l/m 9,7 km/h (2 Bft) W-NW 285 2 min
20.04.2018 18:45 26,8 C 26,3 C 10,8 C 42 % 48 % 1017,6 hPa 0,0 l/m 10,3 km/h (2 Bft) W 260 1 min
20.04.2018 18:40 26,9 C 26,4 C 10,8 C 40 % 45 % 1017,6 hPa 0,0 l/m 16,3 km/h (3 Bft) W-NW 290 1 min
20.04.2018 18:35 27,0 C 26,5 C 10,8 C 40 % 46 % 1017,6 hPa 0,0 l/m 13,3 km/h (3 Bft) W 275 4 min
20.04.2018 18:30 27,2 C 26,8 C 10,8 C 40 % 47 % 1017,6 hPa 0,0 l/m 13,3 km/h (3 Bft) W-SW 255 4 min
20.04.2018 18:25 27,8 C 27,0 C 10,8 C 40 % 43 % 1017,6 hPa 0,0 l/m 12,7 km/h (3 Bft) W 265 2 min
20.04.2018 18:20 28,3 C 27,4 C 10,8 C 36 % 45 % 1017,6 hPa 0,0 l/m 7,9 km/h (2 Bft) W-SW 250 5 min
20.04.2018 18:15 27,9 C 27,2 C 10,8 C 39 % 43 % 1017,6 hPa 0,0 l/m 13,9 km/h (3 Bft) W-NW 285 5 min
20.04.2018 18:10 27,9 C 27,2 C 10,8 C 39 % 46 % 1017,6 hPa 0,0 l/m 12,1 km/h (2 Bft) W-NW 290 5 min
20.04.2018 18:05 28,0 C 27,1 C 10,8 C 38 % 43 % 1017,6 hPa 0,0 l/m 10,9 km/h (2 Bft) W-NW 285 5 min
20.04.2018 18:00 27,9 C 27,1 C 10,8 C 42 % 45 % 1017,6 hPa 0,0 l/m 11,5 km/h (2 Bft) W-NW 290 5 min
20.04.2018 17:55 27,9 C 27,0 C 10,8 C 40 % 47 % 1017,6 hPa 0,0 l/m 13,3 km/h (3 Bft) NW 310 5 min
20.04.2018 17:50 28,1 C 27,4 C 10,8 C 40 % 46 % 1017,6 hPa 0,0 l/m 9,1 km/h (2 Bft) W 275 3 min
20.04.2018 17:45 28,7 C 27,6 C 10,8 C 36 % 43 % 1017,6 hPa 0,0 l/m 6,1 km/h (2 Bft) SW 235 5 min
20.04.2018 17:40 28,2 C 27,2 C 10,8 C 38 % 42 % 1018,6 hPa 0,0 l/m 6,1 km/h (2 Bft) W-NW 290 3 min
20.04.2018 17:35 28,0 C 27,0 C 10,8 C 38 % 42 % 1018,6 hPa 0,0 l/m 12,7 km/h (3 Bft) W-NW 290 8 min
20.04.2018 17:30 27,6 C 27,0 C 10,8 C 39 % 47 % 1018,6 hPa 0,0 l/m 20,0 km/h (4 Bft) W 270 2 min
20.04.2018 17:25 27,7 C 27,1 C 10,8 C 40 % 44 % 1017,6 hPa 0,0 l/m 17,6 km/h (3 Bft) W-NW 295 7 min
20.04.2018 17:20 27,6 C 26,9 C 10,8 C 39 % 44 % 1017,6 hPa 0,0 l/m 15,7 km/h (3 Bft) W-NW 290 3 min
20.04.2018 17:15 27,5 C 27,0 C 10,8 C 41 % 48 % 1017,6 hPa 0,0 l/m 17,6 km/h (3 Bft) W 265 6 min
20.04.2018 17:10 28,1 C 27,0 C 10,8 C 43 % 51 % 1018,6 hPa 0,0 l/m 6,1 km/h (2 Bft) W-NW 285 5 min
20.04.2018 17:05 27,9 C 27,1 C 10,8 C 42 % 52 % 1018,6 hPa 0,0 l/m 7,9 km/h (2 Bft) S-SW 200 4 min
20.04.2018 17:00 27,7 C 27,0 C 10,8 C 39 % 44 % 1018,6 hPa 0,0 l/m 13,9 km/h (3 Bft) W-NW 295 5 min
20.04.2018 16:55 27,5 C 26,7 C 10,8 C 40 % 46 % 1018,6 hPa 0,0 l/m 11,5 km/h (2 Bft) NW 310 5 min
20.04.2018 16:50 27,0 C 26,7 C 10,8 C 42 % 50 % 1018,6 hPa 0,0 l/m 7,3 km/h (2 Bft) W 275 3 min
20.04.2018 16:45 27,3 C 27,2 C 10,8 C 42 % 47 % 1018,6 hPa 0,0 l/m 13,3 km/h (3 Bft) SW 225 6 min
20.04.2018 16:40 27,7 C 27,1 C 10,8 C 38 % 46 % 1018,6 hPa 0,0 l/m 16,9 km/h (3 Bft) W-NW 290 5 min
20.04.2018 16:35 27,8 C 27,4 C 10,8 C 40 % 45 % 1018,6 hPa 0,0 l/m 18,8 km/h (3 Bft) SW 215 5 min
20.04.2018 16:30 27,7 C 27,7 C 10,8 C 40 % 42 % 1018,6 hPa 0,0 l/m 12,7 km/h (3 Bft) W-NW 300 4 min
20.04.2018 16:25 27,7 C 27,8 C 10,8 C 40 % 46 % 1018,6 hPa 0,0 l/m 5,4 km/h (2 Bft) SW 225 8 min
20.04.2018 16:20 27,7 C 28,2 C 10,8 C 38 % 45 % 1018,6 hPa 0,0 l/m 9,1 km/h (2 Bft) NW 310 2 min
20.04.2018 16:15 27,6 C 28,6 C 10,8 C 38 % 41 % 1018,6 hPa 0,0 l/m 9,7 km/h (2 Bft) SO 145 5 min
20.04.2018 16:10 27,8 C 28,6 C 10,8 C 39 % 41 % 1018,6 hPa 0,0 l/m 10,3 km/h (2 Bft) S-SW 205 4 min
20.04.2018 16:05 28,0 C 28,6 C 10,8 C 43 % 46 % 1018,6 hPa 0,0 l/m 10,9 km/h (2 Bft) S 175 5 min
20.04.2018 16:00 27,9 C 28,8 C 10,8 C 43 % 42 % 1018,6 hPa 0,0 l/m 15,1 km/h (3 Bft) W-SW 250 6 min
20.04.2018 15:55 28,4 C 28,7 C 10,8 C 37 % 40 % 1018,6 hPa 0,0 l/m 12,7 km/h (3 Bft) S-SW 205 4 min
20.04.2018 15:50 28,2 C 28,7 C 10,8 C 38 % 41 % 1018,6 hPa 0,0 l/m 16,9 km/h (3 Bft) SW 230 6 min
20.04.2018 15:45 28,0 C 28,7 C 10,8 C 40 % 41 % 1018,6 hPa 0,0 l/m 10,3 km/h (2 Bft) SW 230 4 min
20.04.2018 15:40 27,7 C 28,7 C 10,8 C 38 % 40 % 1019,6 hPa 0,0 l/m 16,9 km/h (3 Bft) SO 135 6 min
20.04.2018 15:35 27,7 C 28,7 C 10,8 C 39 % 42 % 1019,6 hPa 0,0 l/m 17,6 km/h (3 Bft) S-SW 195 5 min
20.04.2018 15:30 27,8 C 28,6 C 10,8 C 39 % 43 % 1019,6 hPa 0,0 l/m 8,5 km/h (2 Bft) S-SO 155 5 min
20.04.2018 15:25 27,8 C 28,4 C 10,8 C 40 % 48 % 1019,6 hPa 0,0 l/m 10,3 km/h (2 Bft) W-SW 250 3 min
20.04.2018 15:20 28,1 C 28,5 C 10,8 C 41 % 43 % 1019,6 hPa 0,0 l/m 8,5 km/h (2 Bft) SW 230 7 min
20.04.2018 15:15 28,1 C 28,5 C 10,8 C 38 % 40 % 1019,6 hPa 0,0 l/m 5,4 km/h (2 Bft) S-SW 200 3 min
20.04.2018 15:10 27,6 C 28,6 C 10,8 C 38 % 39 % 1019,6 hPa 0,0 l/m 15,7 km/h (3 Bft) N 350 7 min
20.04.2018 15:05 28,2 C 28,8 C 10,8 C 37 % 39 % 1019,6 hPa 0,0 l/m 12,7 km/h (3 Bft) SW 225 6 min
20.04.2018 15:00 28,0 C 28,6 C 10,8 C 36 % 39 % 1019,6 hPa 0,0 l/m 10,9 km/h (2 Bft) S-SW 210 4 min
20.04.2018 14:55 28,0 C 28,4 C 10,8 C 38 % 39 % 1019,6 hPa 0,0 l/m 10,9 km/h (2 Bft) S 175 6 min
20.04.2018 14:50 28,0 C 28,5 C 10,8 C 38 % 41 % 1019,6 hPa 0,0 l/m 14,5 km/h (3 Bft) SW 230 4 min
20.04.2018 14:45 28,2 C 28,6 C 10,8 C 36 % 40 % 1019,6 hPa 0,0 l/m 5,4 km/h (2 Bft) S-SW 210 5 min
20.04.2018 14:40 28,2 C 28,6 C 10,8 C 36 % 39 % 1019,6 hPa 0,0 l/m 9,7 km/h (2 Bft) SW 225 3 min
20.04.2018 14:35 27,8 C 28,5 C 10,8 C 36 % 40 % 1019,6 hPa 0,0 l/m 10,9 km/h (2 Bft) S-SW 195 8 min
20.04.2018 14:30 27,7 C 28,2 C 10,8 C 40 % 41 % 1019,6 hPa 0,0 l/m 10,9 km/h (2 Bft) S 180 3 min
20.04.2018 14:25 27,6 C 28,3 C 10,8 C 42 % 45 % 1019,6 hPa 0,0 l/m 9,7 km/h (2 Bft) S 190 7 min
20.04.2018 14:20 27,6 C 28,3 C 10,8 C 38 % 40 % 1019,6 hPa 0,0 l/m 17,6 km/h (3 Bft) S 175 2 min
20.04.2018 14:15 27,8 C 28,2 C 10,8 C 39 % 41 % 1019,6 hPa 0,0 l/m 17,6 km/h (3 Bft) S-SO 160 6 min
20.04.2018 14:10 27,8 C 28,2 C 10,8 C 38 % 40 % 1019,6 hPa 0,0 l/m 15,1 km/h (3 Bft) S-SO 165 5 min
20.04.2018 14:05 28,1 C 28,0 C 10,8 C 37 % 41 % 1019,6 hPa 0,0 l/m 6,1 km/h (2 Bft) S-SW 195 5 min
20.04.2018 14:00 27,8 C 27,8 C 10,8 C 37 % 41 % 1019,6 hPa 0,0 l/m 8,5 km/h (2 Bft) S 180 5 min
20.04.2018 13:55 27,5 C 27,6 C 10,8 C 38 % 42 % 1019,6 hPa 0,0 l/m 11,5 km/h (2 Bft) S-SO 150 5 min
20.04.2018 13:50 27,4 C 27,6 C 10,8 C 39 % 40 % 1019,6 hPa 0,0 l/m 3,0 km/h (1 Bft) W-SW 250 5 min
20.04.2018 13:45 27,0 C 27,6 C 10,8 C 38 % 40 % 1019,6 hPa 0,0 l/m 11,5 km/h (2 Bft) S-SW 205 5 min
20.04.2018 13:40 26,9 C 27,4 C 10,8 C 39 % 41 % 1020,6 hPa 0,0 l/m 15,7 km/h (3 Bft) S-SO 160 5 min
20.04.2018 13:35 27,0 C 27,4 C 10,8 C 38 % 41 % 1020,6 hPa 0,0 l/m 9,7 km/h (2 Bft) SO 140 5 min
20.04.2018 13:30 26,8 C 27,1 C 10,8 C 38 % 41 % 1020,6 hPa 0,0 l/m 13,3 km/h (3 Bft) SW 220 5 min
20.04.2018 13:25 26,6 C 26,9 C 10,8 C 39 % 41 % 1020,6 hPa 0,0 l/m 12,1 km/h (2 Bft) S 190 5 min
20.04.2018 13:20 26,3 C 26,7 C 10,8 C 38 % 41 % 1020,6 hPa 0,0 l/m 13,3 km/h (3 Bft) S 190 5 min
20.04.2018 13:15 26,5 C 26,8 C 10,8 C 38 % 42 % 1020,6 hPa 0,0 l/m 12,7 km/h (3 Bft) S-SO 160 5 min
20.04.2018 13:10 26,1 C 26,6 C 10,8 C 38 % 42 % 1020,6 hPa 0,0 l/m 14,5 km/h (3 Bft) S-SO 165 5 min
20.04.2018 13:05 25,9 C 26,5 C 10,8 C 38 % 41 % 1020,6 hPa 0,0 l/m 12,1 km/h (2 Bft) S-SW 195 5 min
20.04.2018 13:00 25,5 C 26,4 C 10,8 C 39 % 40 % 1020,6 hPa 0,0 l/m 15,7 km/h (3 Bft) S-SW 195 6 min
20.04.2018 12:55 25,6 C 26,2 C 10,8 C 38 % 41 % 1020,6 hPa 0,0 l/m 16,9 km/h (3 Bft) S 180 4 min
20.04.2018 12:50 25,6 C 26,0 C 10,8 C 38 % 42 % 1020,6 hPa 0,0 l/m 13,3 km/h (3 Bft) S-SO 160 6 min
20.04.2018 12:45 25,4 C 25,8 C 10,8 C 39 % 41 % 1020,6 hPa 0,0 l/m 12,7 km/h (3 Bft) S-SW 195 5 min
20.04.2018 12:40 25,2 C 25,8 C 10,8 C 38 % 42 % 1020,6 hPa 0,0 l/m 18,2 km/h (3 Bft) S-SO 165 5 min
20.04.2018 12:35 25,2 C 25,7 C 10,8 C 39 % 42 % 1020,6 hPa 0,0 l/m 16,9 km/h (3 Bft) S 170 4 min
20.04.2018 12:30 25,2 C 25,5 C 10,8 C 40 % 43 % 1020,6 hPa 0,0 l/m 14,5 km/h (3 Bft) S-SO 160 5 min
20.04.2018 12:25 25,3 C 25,4 C 10,8 C 39 % 44 % 1020,6 hPa 0,0 l/m 11,5 km/h (2 Bft) S 175 5 min
20.04.2018 12:20 25,1 C 25,2 C 10,8 C 41 % 43 % 1020,6 hPa 0,0 l/m 12,1 km/h (2 Bft) S 185 5 min
20.04.2018 12:15 24,8 C 25,1 C 10,8 C 41 % 43 % 1020,6 hPa 0,0 l/m 13,3 km/h (3 Bft) SO 135 5 min
20.04.2018 12:10 24,6 C 24,8 C 10,8 C 41 % 44 % 1020,6 hPa 0,0 l/m 13,3 km/h (3 Bft) S-SO 160 5 min
20.04.2018 12:05 24,6 C 24,7 C 10,8 C 41 % 44 % 1020,6 hPa 0,0 l/m 14,5 km/h (3 Bft) S-SO 150 6 min
20.04.2018 12:00 24,1 C 24,4 C 10,8 C 41 % 44 % 1020,6 hPa 0,0 l/m 16,9 km/h (3 Bft) SO 130 4 min
20.04.2018 11:55 23,9 C 24,2 C 10,8 C 41 % 44 % 1020,6 hPa 0,0 l/m 15,1 km/h (3 Bft) S-SO 155 6 min
20.04.2018 11:50 23,6 C 24,0 C 10,8 C 42 % 44 % 1020,6 hPa 0,0 l/m 12,7 km/h (3 Bft) W 265 4 min
20.04.2018 11:45 23,5 C 23,9 C 10,8 C 43 % 44 % 1020,6 hPa 0,0 l/m 13,3 km/h (3 Bft) SO 140 6 min
20.04.2018 11:40 23,3 C 23,8 C 10,8 C 42 % 45 % 1020,6 hPa 0,0 l/m 12,7 km/h (3 Bft) SO 135 5 min
20.04.2018 11:35 23,2 C 23,7 C 10,8 C 43 % 45 % 1020,6 hPa 0,0 l/m 11,5 km/h (2 Bft) SW 230 5 min
20.04.2018 11:30 23,3 C 23,5 C 10,8 C 43 % 45 % 1020,6 hPa 0,0 l/m 13,3 km/h (3 Bft) SO 135 5 min
20.04.2018 11:25 22,9 C 23,4 C 10,8 C 43 % 46 % 1020,6 hPa 0,0 l/m 13,9 km/h (3 Bft) W-SW 245 5 min
20.04.2018 11:20 23,0 C 23,1 C 10,8 C 44 % 47 % 1020,6 hPa 0,0 l/m 13,3 km/h (3 Bft) O-SO 120 6 min
20.04.2018 11:15 22,7 C 23,1 C 10,8 C 44 % 47 % 1020,6 hPa 0,0 l/m 12,7 km/h (3 Bft) S-SO 150 4 min
20.04.2018 11:10 22,8 C 22,9 C 10,8 C 44 % 47 % 1020,6 hPa 0,0 l/m 14,5 km/h (3 Bft) S-SO 160 3 min
20.04.2018 11:05 22,8 C 22,6 C 10,8 C 44 % 47 % 1020,6 hPa 0,0 l/m 14,5 km/h (3 Bft) SO 140 5 min
20.04.2018 11:00 22,6 C 22,5 C 10,8 C 43 % 47 % 1020,6 hPa 0,0 l/m 14,5 km/h (3 Bft) SW 220 5 min
20.04.2018 10:55 22,2 C 22,3 C 10,8 C 43 % 46 % 1020,7 hPa 0,0 l/m 14,5 km/h (3 Bft) S-SO 155 7 min
20.04.2018 10:50 21,9 C 22,2 C 10,8 C 44 % 47 % 1020,7 hPa 0,0 l/m 12,1 km/h (2 Bft) SW 230 6 min
20.04.2018 10:45 22,1 C 21,9 C 10,8 C 45 % 49 % 1020,7 hPa 0,0 l/m 13,3 km/h (3 Bft) S-SO 165 2 min
20.04.2018 10:40 22,1 C 21,8 C 10,8 C 45 % 50 % 1020,7 hPa 0,0 l/m 13,3 km/h (3 Bft) S 175 8 min
20.04.2018 10:35 21,4 C 21,5 C 10,8 C 45 % 48 % 1020,7 hPa 0,0 l/m 15,1 km/h (3 Bft) SO 140 3 min
20.04.2018 10:30 21,2 C 21,3 C 10,8 C 45 % 48 % 1020,7 hPa 0,0 l/m 14,5 km/h (3 Bft) S-SO 155 6 min
20.04.2018 10:25 21,1 C 21,1 C 10,8 C 45 % 49 % 1021,7 hPa 0,0 l/m 14,5 km/h (3 Bft) S-SW 210 3 min
20.04.2018 10:20 21,2 C 21,0 C 10,8 C 46 % 50 % 1021,7 hPa 0,0 l/m 12,1 km/h (2 Bft) SO 125 5 min
20.04.2018 10:15 20,7 C 20,7 C 10,8 C 46 % 49 % 1021,7 hPa 0,0 l/m 16,3 km/h (3 Bft) SO 145 5 min
20.04.2018 10:10 20,9 C 20,6 C 10,8 C 46 % 50 % 1020,7 hPa 0,0 l/m 19,4 km/h (3 Bft) SO 145 5 min
20.04.2018 10:05 20,6 C 20,4 C 10,8 C 46 % 50 % 1020,7 hPa 0,0 l/m 15,7 km/h (3 Bft) S 175 5 min
20.04.2018 10:00 20,4 C 20,2 C 10,8 C 47 % 51 % 1020,7 hPa 0,0 l/m 16,3 km/h (3 Bft) S 175 6 min
20.04.2018 09:55 20,2 C 20,1 C 10,8 C 46 % 51 % 1020,7 hPa 0,0 l/m 13,9 km/h (3 Bft) S 175 5 min
20.04.2018 09:50 20,1 C 19,8 C 10,8 C 47 % 51 % 1020,7 hPa 0,0 l/m 13,9 km/h (3 Bft) S-SO 160 5 min
20.04.2018 09:45 19,8 C 19,6 C 10,8 C 46 % 51 % 1020,7 hPa 0,0 l/m 12,7 km/h (3 Bft) S 180 5 min
20.04.2018 09:40 19,7 C 19,4 C 10,8 C 47 % 51 % 1020,7 hPa 0,0 l/m 15,7 km/h (3 Bft) SO 145 5 min
20.04.2018 09:35 19,5 C 19,2 C 10,8 C 47 % 51 % 1020,7 hPa 0,0 l/m 15,7 km/h (3 Bft) S-SO 150 4 min
20.04.2018 09:30 19,3 C 19,0 C 10,8 C 47 % 52 % 1020,7 hPa 0,0 l/m 17,6 km/h (3 Bft) SO 135 6 min
20.04.2018 09:25 19,3 C 18,8 C 10,8 C 47 % 53 % 1020,7 hPa 0,0 l/m 12,7 km/h (3 Bft) S-SW 205 5 min
20.04.2018 09:20 19,0 C 18,6 C 10,8 C 48 % 53 % 1020,7 hPa 0,0 l/m 13,9 km/h (3 Bft) S 170 5 min
20.04.2018 09:15 18,9 C 18,6 C 10,8 C 48 % 53 % 1020,7 hPa 0,0 l/m 14,5 km/h (3 Bft) S-SO 155 5 min
20.04.2018 09:10 18,8 C 18,2 C 10,8 C 50 % 55 % 1020,7 hPa 0,0 l/m 10,3 km/h (2 Bft) SO 140 5 min
20.04.2018 09:05 18,5 C 17,9 C 10,8 C 50 % 55 % 1020,7 hPa 0,0 l/m 10,3 km/h (2 Bft) SO 140 5 min
20.04.2018 09:00 18,3 C 17,8 C 10,8 C 51 % 56 % 1020,7 hPa 0,0 l/m 7,9 km/h (2 Bft) S-SO 155 5 min
20.04.2018 08:55 18,1 C 17,6 C 10,8 C 51 % 57 % 1020,7 hPa 0,0 l/m 7,9 km/h (2 Bft) S 185 5 min
20.04.2018 08:50 17,9 C 17,4 C 10,8 C 51 % 57 % 1020,7 hPa 0,0 l/m 10,9 km/h (2 Bft) S-SO 160 5 min
20.04.2018 08:45 17,6 C 17,2 C 10,8 C 52 % 57 % 1020,7 hPa 0,0 l/m 9,7 km/h (2 Bft) S-SO 155 4 min
20.04.2018 08:40 17,5 C 17,0 C 10,8 C 52 % 57 % 1020,7 hPa 0,0 l/m 7,9 km/h (2 Bft) S-SO 150 0 min
20.04.2018 08:35 17,3 C 16,9 C 10,8 C 52 % 57 % 1020,7 hPa 0,0 l/m 9,1 km/h (2 Bft) S-SO 150 4 min
20.04.2018 08:30 17,1 C 16,7 C 10,8 C 53 % 58 % 1020,7 hPa 0,0 l/m 6,1 km/h (2 Bft) SO 135 4 min
20.04.2018 08:25 16,9 C 16,6 C 10,8 C 54 % 58 % 1020,7 hPa 0,0 l/m 10,3 km/h (2 Bft) S-SO 155 6 min
20.04.2018 08:20 16,8 C 16,4 C 10,8 C 54 % 59 % 1020,7 hPa 0,0 l/m 9,7 km/h (2 Bft) SO 145 9 min
20.04.2018 08:15 16,5 C 16,3 C 10,8 C 55 % 59 % 1020,7 hPa 0,0 l/m 7,3 km/h (2 Bft) S-SO 150 0 min
20.04.2018 08:10 16,5 C 16,2 C 10,8 C 55 % 59 % 1020,7 hPa 0,0 l/m 7,3 km/h (2 Bft) S-SO 150 6 min
20.04.2018 08:05 16,3 C 16,0 C 10,8 C 55 % 60 % 1020,7 hPa 0,0 l/m 5,4 km/h (2 Bft) S 175 5 min
20.04.2018 08:00 16,2 C 15,8 C 10,8 C 55 % 60 % 1020,7 hPa 0,0 l/m 4,8 km/h (1 Bft) S-SO 155 0 min
20.04.2018 07:55 16,0 C 15,6 C 10,8 C 56 % 61 % 1020,7 hPa 0,0 l/m 7,3 km/h (2 Bft) SO 140 0 min
20.04.2018 07:50 15,8 C 15,5 C 10,8 C 57 % 61 % 1020,7 hPa 0,0 l/m 4,2 km/h (1 Bft) SO 145 0 min
20.04.2018 07:45 15,7 C 15,3 C 10,8 C 57 % 61 % 1020,7 hPa 0,0 l/m 6,1 km/h (2 Bft) SO 130 0 min
20.04.2018 07:40 15,6 C 15,2 C 10,8 C 57 % 61 % 1020,7 hPa 0,0 l/m 4,2 km/h (1 Bft) S-SO 165 0 min
20.04.2018 07:35 15,5 C 15,0 C 10,8 C 57 % 62 % 1020,7 hPa 0,0 l/m 4,2 km/h (1 Bft) SO 135 0 min
20.04.2018 07:30 15,5 C 15,0 C 10,8 C 57 % 62 % 1020,7 hPa 0,0 l/m 4,2 km/h (1 Bft) SO 130 0 min
20.04.2018 07:25 15,5 C 14,8 C 10,8 C 57 % 61 % 1020,7 hPa 0,0 l/m 6,7 km/h (2 Bft) SO 145 0 min
20.04.2018 07:20 15,4 C 14,7 C 10,8 C 57 % 62 % 1020,7 hPa 0,0 l/m 6,1 km/h (2 Bft) SO 125 0 min
20.04.2018 07:15 15,3 C 14,6 C 10,8 C 57 % 62 % 1020,8 hPa 0,0 l/m 4,2 km/h (1 Bft) S 170 0 min
20.04.2018 07:10 15,3 C 14,6 C 10,8 C 57 % 62 % 1020,8 hPa 0,0 l/m 3,6 km/h (1 Bft) S-SO 160 0 min
20.04.2018 07:05 15,2 C 14,6 C 10,8 C 57 % 62 % 1020,8 hPa 0,0 l/m 3,0 km/h (1 Bft) S-SO 160 0 min
20.04.2018 07:00 15,1 C 14,5 C 10,8 C 57 % 62 % 1020,8 hPa 0,0 l/m 1,8 km/h (1 Bft) S-SO 150 0 min
20.04.2018 06:55 15,1 C 14,4 C 10,8 C 57 % 62 % 1020,8 hPa 0,0 l/m 2,4 km/h (1 Bft) S 170 0 min
20.04.2018 06:50 15,1 C 14,4 C 10,8 C 57 % 62 % 1020,8 hPa 0,0 l/m 2,4 km/h (1 Bft) S-SO 165 0 min
20.04.2018 06:45 15,1 C 14,3 C 10,8 C 58 % 62 % 1020,8 hPa 0,0 l/m 3,6 km/h (1 Bft) SO 145 0 min
20.04.2018 06:40 14,9 C 14,2 C 10,8 C 58 % 62 % 1020,8 hPa 0,0 l/m 3,0 km/h (1 Bft) S-SO 165 0 min
20.04.2018 06:35 14,8 C 14,2 C 10,8 C 59 % 62 % 1020,8 hPa 0,0 l/m 1,2 km/h (1 Bft) SO 140 0 min
20.04.2018 06:30 14,8 C 14,3 C 10,8 C 58 % 62 % 1020,8 hPa 0,0 l/m 0,6 km/h (0 Bft) S-SO 150 0 min
20.04.2018 06:25 15,0 C 14,6 C 10,8 C 57 % 62 % 1020,8 hPa 0,0 l/m 1,8 km/h (1 Bft) SW 235 0 min
20.04.2018 06:20 15,0 C 14,6 C 10,8 C 58 % 61 % 1020,8 hPa 0,0 l/m 2,4 km/h (1 Bft) SO 140 0 min
20.04.2018 06:15 14,8 C 14,6 C 10,8 C 58 % 61 % 1020,8 hPa 0,0 l/m 1,8 km/h (1 Bft) SO 145 0 min
20.04.2018 06:10 14,9 C 14,6 C 10,8 C 58 % 61 % 1020,8 hPa 0,0 l/m 1,2 km/h (1 Bft) SO 130 0 min
20.04.2018 06:05 14,9 C 14,7 C 10,8 C 58 % 61 % 1020,7 hPa 0,0 l/m 4,2 km/h (1 Bft) SO 145 0 min
20.04.2018 06:00 14,9 C 14,8 C 10,8 C 58 % 60 % 1020,7 hPa 0,0 l/m 1,8 km/h (1 Bft) S-SO 160 0 min
20.04.2018 05:55 14,9 C 14,8 C 10,8 C 58 % 60 % 1020,7 hPa 0,0 l/m 0,0 km/h (0 Bft) O-SO 120 0 min
20.04.2018 05:50 15,0 C 14,9 C 10,8 C 58 % 60 % 1020,7 hPa 0,0 l/m 2,4 km/h (1 Bft) SO 145 0 min
20.04.2018 05:45 15,1 C 15,0 C 10,8 C 57 % 59 % 1020,7 hPa 0,0 l/m 2,4 km/h (1 Bft) O-SO 115 0 min
20.04.2018 05:40 15,2 C 15,2 C 10,8 C 56 % 59 % 1020,7 hPa 0,0 l/m 1,2 km/h (1 Bft) SO 130 0 min
20.04.2018 05:35 15,3 C 15,4 C 10,8 C 56 % 58 % 1020,7 hPa 0,0 l/m 4,2 km/h (1 Bft) S-SO 150 0 min
20.04.2018 05:30 15,6 C 15,5 C 10,8 C 55 % 58 % 1020,7 hPa 0,0 l/m 1,2 km/h (1 Bft) SO 125 0 min
20.04.2018 05:25 15,8 C 15,6 C 10,8 C 54 % 58 % 1020,7 hPa 0,0 l/m 2,4 km/h (1 Bft) O-SO 105 0 min
20.04.2018 05:20 15,9 C 15,6 C 10,8 C 53 % 57 % 1020,7 hPa 0,0 l/m 3,6 km/h (1 Bft) S-SO 155 0 min
20.04.2018 05:15 16,1 C 15,8 C 10,8 C 52 % 57 % 1020,7 hPa 0,0 l/m 3,0 km/h (1 Bft) S-SO 155 0 min
20.04.2018 05:10 16,1 C 15,8 C 10,8 C 52 % 56 % 1020,7 hPa 0,0 l/m 2,4 km/h (1 Bft) S-SO 160 0 min
20.04.2018 05:05 16,2 C 15,9 C 10,8 C 52 % 56 % 1020,7 hPa 0,0 l/m 3,0 km/h (1 Bft) S-SO 155 0 min
20.04.2018 05:00 16,3 C 15,9 C 10,8 C 52 % 56 % 1020,7 hPa 0,0 l/m 2,4 km/h (1 Bft) S-SO 150 0 min
20.04.2018 04:55 16,3 C 15,9 C 10,8 C 52 % 56 % 1020,7 hPa 0,0 l/m 3,6 km/h (1 Bft) S 170 0 min
20.04.2018 04:50 16,3 C 15,9 C 10,8 C 51 % 56 % 1020,7 hPa 0,0 l/m 2,4 km/h (1 Bft) S 170 0 min
20.04.2018 04:45 16,3 C 15,8 C 10,8 C 51 % 56 % 1020,7 hPa 0,0 l/m 2,4 km/h (1 Bft) S 170 0 min
20.04.2018 04:40 16,2 C 15,8 C 10,8 C 52 % 56 % 1020,7 hPa 0,0 l/m 1,2 km/h (1 Bft) S 170 0 min
20.04.2018 04:35 16,2 C 15,8 C 10,8 C 52 % 56 % 1020,7 hPa 0,0 l/m 1,2 km/h (1 Bft) S 170 0 min
20.04.2018 04:30 16,3 C 15,8 C 10,8 C 52 % 56 % 1020,7 hPa 0,0 l/m 2,4 km/h (1 Bft) S 170 0 min
20.04.2018 04:25 16,3 C 15,9 C 10,8 C 52 % 56 % 1021,7 hPa 0,0 l/m 1,2 km/h (1 Bft) S 175 0 min
20.04.2018 04:20 16,5 C 16,0 C 10,8 C 52 % 56 % 1021,7 hPa 0,0 l/m 1,2 km/h (1 Bft) S-SW 195 0 min
20.04.2018 04:15 16,6 C 16,1 C 10,8 C 51 % 56 % 1021,7 hPa 0,0 l/m 1,2 km/h (1 Bft) SO 135 0 min
20.04.2018 04:10 16,6 C 16,2 C 10,8 C 51 % 56 % 1020,7 hPa 0,0 l/m 3,0 km/h (1 Bft) SO 145 0 min
20.04.2018 04:05 16,7 C 16,2 C 10,8 C 51 % 56 % 1020,7 hPa 0,0 l/m 2,4 km/h (1 Bft) SO 140 0 min
20.04.2018 04:00 16,8 C 16,3 C 10,8 C 51 % 55 % 1020,7 hPa 0,0 l/m 0,0 km/h (0 Bft) SO 145 0 min
20.04.2018 03:55 16,9 C 16,4 C 10,8 C 50 % 55 % 1021,7 hPa 0,0 l/m 1,8 km/h (1 Bft) S 180 0 min
20.04.2018 03:50 16,8 C 16,4 C 10,8 C 51 % 54 % 1021,7 hPa 0,0 l/m 0,0 km/h (0 Bft) S 190 0 min
20.04.2018 03:45 16,9 C 16,5 C 10,8 C 50 % 54 % 1021,7 hPa 0,0 l/m 1,2 km/h (1 Bft) O-NO 75 0 min
20.04.2018 03:40 17,0 C 16,5 C 10,8 C 50 % 54 % 1021,7 hPa 0,0 l/m 1,8 km/h (1 Bft) S-SO 150 0 min
20.04.2018 03:35 16,9 C 16,4 C 10,8 C 50 % 54 % 1021,7 hPa 0,0 l/m 0,6 km/h (0 Bft) S-SO 155 0 min
20.04.2018 03:30 17,0 C 16,6 C 10,8 C 50 % 54 % 1021,7 hPa 0,0 l/m 0,6 km/h (0 Bft) O 100 0 min
20.04.2018 03:25 17,3 C 17,0 C 10,8 C 48 % 54 % 1020,7 hPa 0,0 l/m 0,0 km/h (0 Bft) W-SW 250 0 min
20.04.2018 03:20 17,5 C 17,2 C 10,8 C 48 % 52 % 1020,7 hPa 0,0 l/m 4,8 km/h (1 Bft) S 180 0 min
20.04.2018 03:15 17,6 C 17,2 C 10,8 C 48 % 52 % 1020,7 hPa 0,0 l/m 4,8 km/h (1 Bft) O 100 0 min
20.04.2018 03:10 17,7 C 17,2 C 10,8 C 47 % 52 % 1020,7 hPa 0,0 l/m 3,6 km/h (1 Bft) SO 140 0 min
20.04.2018 03:05 17,8 C 17,3 C 10,8 C 47 % 52 % 1020,7 hPa 0,0 l/m 1,8 km/h (1 Bft) S 170 0 min
20.04.2018 03:00 17,9 C 17,6 C 10,8 C 47 % 52 % 1020,7 hPa 0,0 l/m 2,4 km/h (1 Bft) SO 145 0 min
20.04.2018 02:55 18,2 C 17,8 C 10,8 C 45 % 48 % 1021,7 hPa 0,0 l/m 4,8 km/h (1 Bft) S-SW 200 0 min
20.04.2018 02:50 18,2 C 17,7 C 10,8 C 45 % 49 % 1021,7 hPa 0,0 l/m 5,4 km/h (2 Bft) S-SO 160 0 min
20.04.2018 02:45 18,1 C 17,7 C 10,8 C 45 % 50 % 1021,7 hPa 0,0 l/m 5,4 km/h (2 Bft) SO 145 0 min
20.04.2018 02:40 18,0 C 17,7 C 10,8 C 46 % 50 % 1021,7 hPa 0,0 l/m 6,1 km/h (2 Bft) S-SO 150 0 min
20.04.2018 02:35 18,0 C 17,8 C 10,8 C 47 % 50 % 1021,7 hPa 0,0 l/m 4,8 km/h (1 Bft) SO 125 0 min
20.04.2018 02:30 18,0 C 17,9 C 10,8 C 46 % 49 % 1021,7 hPa 0,0 l/m 1,2 km/h (1 Bft) SO 125 0 min
20.04.2018 02:25 18,2 C 18,0 C 10,8 C 45 % 49 % 1021,7 hPa 0,0 l/m 2,4 km/h (1 Bft) S-SO 165 0 min
20.04.2018 02:20 18,3 C 18,0 C 10,8 C 45 % 49 % 1021,7 hPa 0,0 l/m 2,4 km/h (1 Bft) S-SO 150 0 min
20.04.2018 02:15 18,4 C 18,2 C 10,8 C 45 % 48 % 1021,7 hPa 0,0 l/m 3,0 km/h (1 Bft) O-SO 105 0 min
20.04.2018 02:10 18,5 C 18,3 C 10,8 C 44 % 47 % 1021,7 hPa 0,0 l/m 1,8 km/h (1 Bft) S-SO 155 0 min
20.04.2018 02:05 18,7 C 18,4 C 10,8 C 44 % 47 % 1021,7 hPa 0,0 l/m 5,4 km/h (2 Bft) SO 135 0 min
20.04.2018 02:00 18,7 C 18,5 C 10,8 C 44 % 47 % 1021,7 hPa 0,0 l/m 3,6 km/h (1 Bft) S 180 0 min
20.04.2018 01:55 18,7 C 18,5 C 10,8 C 44 % 47 % 1021,7 hPa 0,0 l/m 3,0 km/h (1 Bft) S-SO 160 0 min
20.04.2018 01:50 18,9 C 18,6 C 10,8 C 43 % 47 % 1021,7 hPa 0,0 l/m 2,4 km/h (1 Bft) S-SO 150 0 min
20.04.2018 01:45 19,0 C 18,8 C 10,8 C 43 % 46 % 1021,7 hPa 0,0 l/m 3,6 km/h (1 Bft) S-SO 160 0 min
20.04.2018 01:40 19,1 C 18,8 C 10,8 C 43 % 46 % 1021,7 hPa 0,0 l/m 3,6 km/h (1 Bft) SO 135 0 min
20.04.2018 01:35 19,2 C 18,9 C 10,8 C 43 % 46 % 1021,7 hPa 0,0 l/m 7,3 km/h (2 Bft) S 170 0 min
20.04.2018 01:30 19,2 C 18,9 C 10,8 C 43 % 46 % 1021,7 hPa 0,0 l/m 6,7 km/h (2 Bft) SO 130 0 min
20.04.2018 01:25 19,4 C 19,0 C 10,8 C 43 % 46 % 1021,7 hPa 0,0 l/m 4,2 km/h (1 Bft) O-SO 120 0 min
20.04.2018 01:20 19,6 C 19,2 C 10,8 C 42 % 46 % 1021,7 hPa 0,0 l/m 4,8 km/h (1 Bft) SO 140 0 min
20.04.2018 01:15 19,9 C 19,3 C 10,8 C 41 % 45 % 1021,7 hPa 0,0 l/m 8,5 km/h (2 Bft) S 185 0 min
20.04.2018 01:10 19,9 C 19,4 C 10,8 C 41 % 45 % 1021,7 hPa 0,0 l/m 7,3 km/h (2 Bft) SO 145 0 min
20.04.2018 01:05 20,0 C 19,4 C 10,8 C 41 % 45 % 1021,7 hPa 0,0 l/m 9,7 km/h (2 Bft) SO 140 0 min
20.04.2018 01:00 20,0 C 19,4 C 10,8 C 41 % 45 % 1021,7 hPa 0,0 l/m 7,3 km/h (2 Bft) S-SO 160 0 min
20.04.2018 00:55 20,0 C 19,4 C 10,8 C 41 % 45 % 1020,7 hPa 0,0 l/m 9,1 km/h (2 Bft) S 180 0 min
20.04.2018 00:50 20,0 C 19,3 C 10,8 C 42 % 46 % 1020,7 hPa 0,0 l/m 8,5 km/h (2 Bft) S-SO 155 0 min
20.04.2018 00:45 19,8 C 19,2 C 10,8 C 42 % 46 % 1020,7 hPa 0,0 l/m 10,3 km/h (2 Bft) SO 140 0 min
20.04.2018 00:40 19,5 C 19,1 C 10,8 C 44 % 48 % 1021,7 hPa 0,0 l/m 4,8 km/h (1 Bft) SO 135 0 min
20.04.2018 00:35 19,5 C 19,1 C 10,8 C 44 % 48 % 1021,7 hPa 0,0 l/m 3,0 km/h (1 Bft) SO 145 0 min
20.04.2018 00:30 19,6 C 19,1 C 10,8 C 44 % 49 % 1021,7 hPa 0,0 l/m 4,8 km/h (1 Bft) SO 130 0 min
20.04.2018 00:25 19,5 C 19,1 C 10,8 C 44 % 48 % 1021,7 hPa 0,0 l/m 5,4 km/h (2 Bft) SO 125 0 min
20.04.2018 00:20 19,4 C 19,2 C 10,8 C 45 % 48 % 1021,7 hPa 0,0 l/m 7,3 km/h (2 Bft) S-SO 150 0 min
20.04.2018 00:15 19,3 C 19,2 C 10,8 C 45 % 49 % 1021,7 hPa 0,0 l/m 4,2 km/h (1 Bft) SO 125 0 min
20.04.2018 00:10 19,4 C 19,3 C 10,8 C 45 % 48 % 1021,7 hPa 0,0 l/m 3,0 km/h (1 Bft) SO 125 0 min
20.04.2018 00:05 19,7 C 19,4 C 10,8 C 44 % 48 % 1021,7 hPa 0,0 l/m 4,2 km/h (1 Bft) S-SO 155 0 min
20.04.2018 00:00 19,9 C 19,5 C 10,8 C 44 % 48 % 1021,7 hPa 0,0 l/m 4,8 km/h (1 Bft) O 85 0 min
_ Min-Zeit 06:15 06:35 00:00 14:35 14:40 20:05 - 03:25 - - -
Minimum _ 14,8 C 14,2 C 10,8 C 36 % 39 % 1016,6 hPa - 0,0 km/h (0 Bft) - - -
_ Max-Zeit 17:45 15:05 00:00 06:35 06:25 04:25 00:00 17:30 - - 08:20
Maximum _ 28,7 C 28,8 C 10,8 C 59 % 62 % 1021,7 hPa 0,0 l/m 20,0 km/h
W (4 Bft)
- - 9 min
Durchschnitt _ 21,8 C 21,7 C 10,8 C 47 % 50 % 1019,9 hPa #0,0 l/m 8,5 km/h (2 Bft) S-SO - #11:07 h